Temperature
20 20 20 19 19 19 19 19 19 19 19 19 19 18 18 18 18 18 18 18 18 18 18 18 18 18 18 18 18 18 18 18 18 18 18 18 18 17 17 17 17 17 17
20 20 20 19 19 19 19 19 19 19 19 19 18 18 18 18 18 18 18 18 18 18 18 18 18 18 18 18 18 18 18 18 18 18 18 18 17 17 17 17 17 17 17
20 20 20 19 19 19 19 19 19 19 18 18 18 18 18 18 18 18 18 18 18 18 18 18 18 18 18 18 18 18 18 18 17 17 17 17 17 17 17 17 17 17 17
20 20 20 19 19 19 19 19 18 18 18 18 18 18 18 18 18 18 18 18 18 18 18 18 18 18 18 18 18 18 18 17 17 17 17 17 17 17 17 17 17 17 17
20 20 20 20 19 19 19 19 18 18 18 18 18 18 18 18 18 18 18 18 18 18 18 18 18 18 18 18 18 18 17 17 17 17 17 17 17 17 17 17 17 17 17
20 20 20 20 19 19 19 19 18 18 18 18 18 18 18 18 18 18 18 18 18 18 18 18 18 18 18 18 18 18 17 17 17 17 17 17 17 17 17 17 17 17 17
20 20 20 20 19 19 19 18 18 18 18 18 18 18 18 18 18 18 18 18 18 18 18 18 18 18 18 18 18 18 17 17 17 17 17 17 17 17 17 17 17 17 17
21 20 20 20 19 19 19 18 18 18 18 18 18 18 18 18 18 18 18 18 18 18 18 18 18 18 18 18 18 18 18 17 17 17 17 17 17 17 17 17 17 17 17
21 20 20 20 20 19 19 19 18 18 18 18 18 18 18 18 18 18 18 18 18 18 18 18 18 18 18 18 18 18 18 18 17 17 17 18 17 17 17 17 17 17 17
21 21 20 19 19 19 19 19 19 19 18 18 18 18 18 18 18 18 18 18 18 18 18 18 18 18 18 18 18 18 18 18 18 17 18 18 18 17 17 17 17 17 17
21 21 21 20 19 19 18 19 19 19 19 18 18 18 18 18 18 18 18 18 18 18 18 18 18 18 18 18 18 18 18 18 17 18 18 18 18 17 17 17 17 17 17
21 21 21 20 20 19 19 19 19 18 18 18 18 18 18 18 18 18 18 18 18 18 18 18 18 18 18 18 18 18 18 18 18 18 18 18 18 18 17 17 17 17 17
21 21 21 20 20 20 19 19 19 18 18 18 18 18 18 18 18 18 18 18 18 18 18 18 18 18 18 18 18 18 18 18 18 18 18 18 18 18 18 17 17 17 17
21 21 21 20 20 20 19 19 19 19 19 18 18 18 18 18 18 18 18 18 18 18 18 18 18 18 18 18 18 18 18 18 18 18 18 18 18 18 18 17 17 17 17
21 21 20 20 20 19 19 19 19 19 19 18 18 18 18 18 18 18 18 18 18 18 18 18 18 18 18 18 18 18 18 18 18 18 18 18 18 18 18 18 17 17 17
21 20 20 20 20 19 19 19 19 19 19 18 18 18 18 18 18 18 18 18 18 18 18 18 18 18 18 18 18 18 18 18 18 18 18 18 18 18 18 18 18 17 17
21 20 20 20 19 19 19 19 19 19 19 18 18 18 18 18 18 18 18 18 18 18 18 18 18 18 18 18 18 18 18 18 18 18 18 18 18 18 18 18 18 17 17
21 20 20 19 19 19 19 19 19 19 18 18 18 18 18 18 18 18 18 18 18 18 18 18 18 18 18 18 18 18 18 18 18 18 18 17 17 18 18 18 18 18 17
20 20 20 19 19 19 19 19 19 19 18 18 18 18 18 18 18 18 18 18 18 18 18 18 18 18 18 18 18 18 18 18 18 18 18 18 17 17 18 18 18 18 17
20 20 20 19 19 19 19 19 19 19 18 18 18 18 18 18 18 18 18 18 18 18 18 18 18 18 18 18 18 18 18 18 18 18 18 18 18 17 17 17 17 17 17
20 20 20 19 19 19 19 19 18 18 18 18 18 18 18 18 18 18 18 18 18 18 18 18 18 18 18 18 18 18 18 18 18 18 18 18 18 18 18 17 17 17 17
20 20 19 19 19 19 19 19 18 18 18 18 18 18 18 18 18 18 18 18 18 18 18 18 18 18 18 18 18 18 18 18 19 19 18 18 18 18 18 18 17 17 17
20 20 20 19 19 19 19 19 18 18 18 18 18 18 18 18 18 18 18 18 18 18 18 18 18 18 18 18 18 18 18 18 18 19 18 18 18 18 18 18 18 17 17
20 20 20 19 19 19 19 19 18 18 18 18 18 18 18 18 18 18 18 18 18 18 18 18 18 18 18 18 18 18 18 18 18 18 18 18 18 18 18 18 17 17 17
21 20 20 19 19 19 19 18 18 18 18 18 18 18 18 18 18 18 18 18 18 18 18 18 18 18 18 18 18 18 18 18 18 18 18 18 18 18 18 17 17 17 17
21 20 20 19 19 19 19 18 18 18 18 18 18 18 18 18 18 18 18 18 18 18 18 18 18 18 18 18 18 18 18 18 18 18 18 18 18 18 17 17 17 17 17
Wind_Speed
15 15 15 14 14 14 14 15 14 14 14 14 14 14 14 15 15 15 15 15 15 15 15 15 15 15 15 15 16 16 16 16 17 18 18 17 16 15 15 16 17 16 17
18 17 15 14 14 14 14 14 14 14 13 13 14 13 13 14 14 14 14 15 15 15 15 15 15 15 15 15 14 14 14 14 15 17 17 16 15 14 15 15 16 14 17
18 17 16 14 15 14 14 13 13 13 13 13 13 12 13 13 14 14 14 14 14 15 15 14 15 14 14 14 13 13 13 12 14 15 15 14 14 15 16 17 17 16 16
18 17 16 15 14 14 13 13 13 13 13 12 12 12 12 12 13 14 14 14 14 14 14 14 14 14 13 12 12 11 11 11 12 11 10 13 13 14 16 17 16 16 16
18 18 17 15 14 14 13 13 12 12 12 12 12 12 12 12 13 13 13 13 13 13 14 14 13 13 13 12 10 9 9 8 7 7 13 14 13 14 15 15 15 15 15
19 19 17 15 14 13 13 12 12 12 12 12 12 12 13 12 13 13 13 13 13 13 13 13 12 12 11 10 9 7 6 5 3 10 14 14 12 13 14 14 14 14 14
18 19 17 15 14 13 12 12 12 12 12 12 12 12 12 12 12 12 12 13 13 13 13 12 12 11 10 9 7 6 5 2 3 12 13 13 13 14 14 14 14 14 14
18 18 17 15 14 13 12 12 11 11 11 11 12 12 12 12 12 12 12 12 12 12 12 12 12 11 9 7 5 3 3 3 8 13 14 13 13 14 14 14 13 13 13
17 17 16 15 14 13 12 11 11 11 11 11 11 11 12 12 12 12 12 12 12 12 11 11 10 9 7 5 2 1 2 3 4 10 14 12 13 14 14 13 13 12 12
11 13 14 15 15 14 13 12 11 11 10 10 10 10 11 11 12 12 11 11 11 11 10 10 9 8 6 3 1 2 2 3 3 12 13 13 14 14 14 13 12 12 12
9 8 10 12 13 13 13 13 12 11 10 10 9 10 10 9 11 10 11 10 10 10 9 9 8 7 5 4 3 3 3 1 8 12 12 15 14 13 13 12 12 11 11
8 8 7 8 9 10 10 12 11 10 10 8 8 10 8 6 8 11 12 10 10 9 8 8 7 7 7 6 6 5 3 2 9 12 12 15 14 13 12 12 11 11 11
8 6 7 7 6 6 6 8 7 7 9 7 6 6 6 7 9 10 9 9 8 9 8 8 8 7 6 4 3 4 2 3 7 11 12 14 14 12 12 12 11 10 10
9 7 7 6 6 5 4 4 5 5 5 6 7 5 6 4 4 6 6 8 8 7 5 6 5 4 3 3 2 1 1 3 8 11 12 14 13 12 12 11 11 10 10
8 6 7 6 5 4 3 1 2 3 4 6 7 4 4 3 3 4 3 3 5 7 6 3 2 3 1 2 2 2 2 4 6 11 11 13 13 12 11 11 11 11 10
7 6 7 6 5 4 2 0 1 3 3 4 5 5 3 3 3 2 2 2 2 3 4 3 2 2 1 1 1 2 2 3 5 8 12 12 13 13 12 12 12 11 11
7 7 6 6 6 5 4 3 1 1 3 3 4 4 3 4 4 3 2 2 2 3 3 2 2 2 3 3 2 2 2 3 5 6 10 12 12 13 13 13 13 13 12
8 7 5 6 7 6 4 2 1 1 2 2 3 4 3 4 5 3 2 2 3 3 3 2 2 2 2 1 2 2 2 3 4 6 7 11 12 12 14 15 15 15 14
8 7 5 3 6 6 5 3 2 1 1 2 3 3 4 5 5 4 1 2 3 3 2 3 2 2 2 2 2 3 3 3 4 6 6 8 10 12 13 16 17 16 16
8 7 6 4 4 5 4 3 1 2 2 2 3 3 4 4 5 3 3 3 3 2 2 1 1 1 1 2 4 2 3 4 4 4 5 7 9 11 13 14 15 15 17
8 7 6 5 5 4 4 4 3 3 3 3 3 5 6 4 4 3 1 2 2 2 2 2 1 2 3 3 2 1 2 4 5 4 4 3 5 8 10 13 13 12 12
8 7 6 5 5 5 4 3 3 3 3 4 2 3 5 5 5 5 3 3 2 1 2 2 1 1 3 3 1 1 1 2 2 5 4 4 4 5 5 9 10 10 10
8 7 6 5 6 5 4 3 2 2 2 2 3 3 3 5 5 3 4 3 2 3 3 3 3 3 3 3 2 1 1 2 1 1 2 2 1 2 1 3 6 9 10
8 7 6 6 6 5 5 4 4 4 3 3 3 3 3 4 4 5 4 4 3 2 2 4 4 3 3 3 2 2 2 1 1 1 1 1 2 2 2 2 2 4 7
8 8 7 6 5 5 4 4 4 3 2 2 2 2 3 3 4 5 5 3 3 3 3 3 2 3 2 3 2 2 2 2 3 3 2 1 1 1 1 1 1 3 4
7 7 7 6 5 4 4 3 3 3 2 1 1 1 2 2 3 4 4 3 4 3 3 3 2 3 2 2 2 2 2 2 2 3 3 3 2 1 1 1 1 2 3
Wind_Direction
103 103 100 96 95 95 94 94 94 92 90 88 88 89 89 89 89 90 91 91 91 91 91 91 93 92 93 93 95 97 99 99 102 103 103 101 101 102 104 110 105 102 105
108 107 101 99 97 96 94 94 94 93 92 91 90 92 92 91 91 91 92 92 94 95 95 95 95 94 95 95 97 100 103 107 110 110 106 100 99 100 101 103 102 109 108
111 112 107 101 100 97 96 96 96 95 94 93 93 95 95 95 95 95 94 95 97 99 99 98 97 96 97 98 102 107 113 119 120 121 115 106 101 99 101 103 107 109 109
116 115 108 105 101 100 99 99 97 96 95 94 94 95 96 97 98 98 98 97 98 100 100 99 97 97 98 100 104 112 122 129 132 133 115 107 106 104 105 108 110 110 111
108 107 110 108 104 102 101 100 99 98 97 97 96 96 96 97 99 99 99 98 99 101 101 100 98 98 100 103 107 113 121 126 139 124 99 97 101 111 112 113 113 112 113
115 114 114 113 109 107 105 104 102 101 100 100 99 98 99 99 100 100 100 99 99 102 103 100 99 101 103 106 109 113 115 120 141 107 104 107 111 116 117 116 115 114 114
116 116 120 118 115 112 110 107 105 104 102 103 103 102 102 102 103 103 103 101 99 102 105 103 103 104 106 107 109 107 96 56 125 109 107 108 117 122 121 119 117 117 117
118 119 123 123 121 118 115 112 111 110 107 107 108 107 107 108 107 106 106 105 104 106 107 106 106 106 107 108 107 99 74 7 100 107 106 109 121 124 125 123 122 123 121
122 128 134 135 131 126 121 119 116 114 114 115 117 117 116 114 113 112 110 111 109 110 112 112 113 113 111 111 111 64 38 7 77 112 110 113 123 127 127 126 127 127 125
116 129 139 141 142 142 134 132 128 126 126 127 129 129 129 127 123 123 118 116 116 115 117 119 122 124 126 133 184 287 320 343 113 102 106 118 125 127 128 129 130 130 128
115 124 135 137 146 147 142 141 143 142 142 146 146 149 153 151 139 136 119 125 125 125 128 132 136 142 153 177 216 256 290 230 102 99 107 124 129 131 133 135 135 136 134
128 127 129 129 142 142 140 143 155 154 155 168 156 167 177 156 139 126 131 136 139 142 147 157 161 174 193 191 202 225 243 155 117 111 122 133 134 136 139 141 142 142 143
136 126 120 110 105 117 128 149 148 148 151 157 150 158 157 144 139 138 149 152 161 167 175 168 185 203 197 185 183 203 206 104 109 115 134 142 142 145 147 149 151 151 151
132 136 118 101 92 77 84 119 144 146 151 142 147 183 157 158 152 150 161 165 169 178 173 175 194 195 166 160 169 216 135 109 115 123 142 149 151 154 157 160 163 165 166
134 132 111 106 96 84 63 29 126 120 139 140 151 172 153 146 136 135 136 159 182 167 165 182 173 133 134 176 175 141 91 103 118 130 143 156 158 162 166 170 173 175 177
139 133 125 126 124 118 126 1 47 114 121 134 143 153 154 132 120 126 152 176 178 148 144 158 156 159 182 194 162 143 144 128 124 132 148 161 169 173 176 180 183 185 186
142 136 137 152 148 156 177 197 157 165 151 135 133 149 168 159 152 163 169 192 160 132 143 173 172 187 191 184 183 187 176 158 155 159 157 165 174 183 186 188 190 191 194
144 145 168 173 153 163 182 197 164 164 141 143 151 158 165 166 175 186 187 184 166 181 191 184 218 201 199 189 187 202 181 170 175 180 180 174 174 181 191 195 196 197 200
144 153 169 157 151 165 176 183 182 152 157 177 173 168 178 190 180 194 206 162 193 196 205 217 176 204 203 200 207 202 203 199 189 195 192 186 182 177 181 195 201 203 205
145 152 162 166 159 165 163 174 188 182 206 221 193 177 186 205 188 203 206 193 222 206 214 222 167 194 238 232 237 209 208 201 199 195 200 193 186 184 186 185 195 208 211
146 155 166 170 161 168 175 180 185 195 206 213 213 185 186 206 191 198 249 178 223 222 210 205 201 210 233 229 229 244 244 219 196 191 203 199 187 187 186 176 183 191 200
154 161 166 170 168 181 182 181 190 198 209 201 202 167 194 200 200 197 202 235 226 217 223 242 232 242 253 231 206 209 257 276 248 221 192 200 198 183 185 182 185 189 190
159 164 170 163 166 180 177 180 192 184 235 202 185 182 203 206 208 221 194 224 232 225 207 225 224 228 247 253 211 192 196 229 259 277 218 192 170 171 169 172 176 179 182
162 162 157 157 165 169 177 195 191 194 208 208 199 188 193 206 211 220 217 217 237 249 209 229 219 228 233 254 250 239 232 225 209 279 312 221 187 180 183 185 167 163 169
162 160 156 153 162 169 186 199 200 209 210 208 201 188 202 210 216 223 219 213 222 241 238 244 228 231 225 233 247 247 245 227 220 216 248 260 257 203 181 149 127 118 139
152 155 154 153 161 172 190 196 196 221 234 250 243 252 233 224 225 231 224 209 212 231 239 238 238 231 236 241 259 265 248 223 221 216 221 217 226 228 115 91 99 100 111
Height
1526 1525 1526 1526 1527 1528 1528 1529 1530 1530 1531 1532 1532 1533 1534 1535 1535 1536 1536 1537 1538 1538 1539 1540 1541 1542 1543 1544 1546 1547 1548 1550 1551 1552 1554 1555 1556 1557 1559 1560 1562 1563 1564
1526 1527 1527 1528 1529 1530 1531 1531 1532 1533 1533 1534 1535 1536 1537 1537 1538 1538 1539 1540 1540 1541 1542 1543 1544 1544 1545 1547 1548 1549 1550 1552 1553 1554 1556 1557 1558 1559 1561 1562 1563 1564 1566
1527 1528 1529 1530 1531 1532 1533 1534 1534 1535 1536 1537 1537 1538 1539 1540 1540 1541 1541 1542 1543 1544 1544 1545 1546 1547 1548 1549 1550 1551 1553 1554 1555 1557 1558 1559 1560 1562 1563 1564 1565 1566 1568
1529 1530 1531 1532 1533 1534 1535 1536 1537 1537 1538 1539 1540 1540 1541 1542 1542 1543 1544 1544 1545 1546 1546 1548 1548 1549 1550 1551 1552 1553 1555 1556 1557 1559 1561 1562 1562 1563 1565 1566 1567 1568 1569
1531 1532 1533 1534 1535 1536 1537 1538 1539 1539 1540 1541 1542 1543 1543 1544 1545 1545 1546 1547 1547 1548 1549 1550 1551 1551 1552 1553 1554 1556 1557 1558 1559 1561 1563 1563 1564 1565 1566 1567 1569 1570 1571
1533 1534 1535 1536 1537 1538 1539 1540 1541 1542 1543 1543 1544 1545 1545 1546 1547 1548 1548 1549 1549 1550 1551 1552 1553 1554 1554 1555 1557 1558 1559 1560 1561 1563 1564 1565 1566 1567 1568 1569 1570 1572 1573
1535 1535 1536 1537 1539 1540 1541 1542 1543 1544 1544 1545 1546 1547 1547 1548 1549 1549 1551 1551 1552 1552 1553 1554 1555 1556 1557 1558 1559 1560 1561 1562 1564 1565 1565 1566 1567 1568 1569 1571 1572 1573 1575
1536 1536 1538 1539 1540 1542 1543 1544 1545 1545 1546 1547 1548 1549 1549 1550 1551 1552 1553 1553 1554 1555 1556 1556 1557 1558 1559 1560 1561 1562 1563 1564 1566 1567 1567 1567 1568 1569 1570 1572 1573 1575 1576
1537 1538 1539 1541 1542 1543 1544 1546 1547 1547 1548 1549 1550 1550 1551 1552 1553 1554 1555 1555 1556 1557 1558 1559 1559 1560 1561 1562 1563 1564 1565 1566 1567 1568 1568 1568 1569 1570 1571 1573 1575 1576 1577
1540 1541 1541 1543 1543 1545 1546 1547 1548 1549 1550 1551 1552 1552 1553 1554 1555 1556 1557 1557 1558 1559 1560 1561 1562 1563 1564 1565 1566 1567 1568 1568 1569 1569 1569 1570 1570 1571 1573 1574 1576 1577 1578
1542 1543 1544 1545 1545 1547 1548 1549 1549 1550 1552 1553 1554 1554 1555 1556 1557 1558 1559 1559 1560 1561 1562 1563 1564 1565 1566 1567 1568 1569 1569 1570 1570 1570 1571 1571 1572 1573 1574 1575 1576 1578 1579
1543 1544 1545 1546 1547 1548 1549 1550 1551 1552 1553 1554 1555 1556 1557 1558 1559 1560 1560 1561 1562 1563 1564 1565 1566 1566 1567 1568 1570 1570 1570 1571 1572 1571 1572 1573 1573 1574 1575 1576 1577 1578 1580
1543 1544 1546 1547 1548 1549 1550 1551 1552 1553 1554 1555 1557 1558 1559 1560 1560 1561 1561 1562 1563 1564 1565 1566 1567 1568 1569 1570 1571 1571 1572 1573 1573 1572 1573 1573 1574 1575 1576 1577 1578 1579 1580
1542 1544 1546 1547 1548 1549 1550 1552 1553 1554 1555 1556 1557 1559 1560 1560 1561 1562 1563 1563 1564 1565 1566 1567 1568 1569 1570 1571 1572 1572 1573 1573 1573 1573 1574 1574 1575 1575 1576 1577 1578 1579 1580
1542 1544 1545 1546 1548 1549 1551 1552 1554 1555 1556 1557 1558 1559 1561 1561 1562 1563 1564 1564 1565 1566 1567 1568 1569 1570 1570 1571 1572 1573 1573 1574 1574 1573 1574 1574 1575 1576 1576 1577 1578 1579 1580
1542 1544 1545 1546 1548 1549 1551 1552 1554 1555 1556 1557 1558 1559 1560 1561 1562 1563 1563 1564 1566 1567 1568 1568 1569 1570 1570 1571 1572 1573 1573 1574 1574 1574 1574 1575 1575 1576 1576 1577 1578 1579 1579
1542 1543 1544 1546 1547 1548 1550 1551 1553 1555 1556 1557 1558 1559 1560 1561 1561 1562 1563 1564 1565 1567 1567 1568 1569 1569 1570 1571 1572 1573 1573 1574 1574 1574 1574 1574 1575 1575 1576 1577 1577 1578 1579
1541 1542 1544 1546 1546 1548 1549 1551 1552 1554 1555 1556 1557 1558 1559 1560 1561 1562 1563 1564 1565 1566 1567 1568 1568 1569 1570 1570 1571 1572 1572 1573 1573 1574 1574 1574 1574 1575 1575 1576 1577 1577 1578
1540 1542 1543 1545 1546 1547 1548 1550 1551 1553 1554 1555 1556 1557 1558 1559 1560 1561 1562 1563 1564 1566 1567 1567 1567 1568 1569 1569 1570 1570 1571 1572 1572 1573 1574 1574 1574 1574 1574 1575 1575 1576 1577
1540 1541 1542 1544 1545 1546 1547 1549 1551 1552 1553 1554 1556 1556 1557 1558 1559 1560 1561 1562 1564 1565 1565 1566 1566 1567 1568 1568 1569 1570 1570 1570 1571 1572 1572 1573 1573 1573 1573 1573 1574 1574 1575
1539 1540 1541 1543 1544 1545 1546 1548 1549 1551 1552 1553 1554 1555 1556 1557 1558 1559 1561 1562 1562 1563 1564 1565 1565 1566 1566 1567 1568 1568 1569 1569 1570 1570 1571 1571 1572 1572 1572 1572 1572 1572 1572
1539 1540 1541 1542 1543 1544 1545 1547 1548 1550 1551 1552 1554 1554 1555 1556 1557 1558 1559 1560 1561 1562 1562 1563 1563 1564 1565 1566 1567 1567 1567 1569 1568 1568 1568 1569 1570 1570 1571 1571 1570 1570 1571
1538 1539 1540 1541 1541 1543 1544 1546 1548 1549 1550 1551 1552 1553 1553 1554 1555 1556 1558 1558 1559 1560 1560 1561 1562 1562 1563 1564 1565 1566 1566 1565 1566 1566 1566 1567 1567 1568 1568 1569 1569 1569 1569
1538 1538 1539 1540 1541 1542 1543 1545 1546 1547 1548 1550 1550 1551 1552 1553 1554 1555 1556 1556 1557 1558 1558 1559 1559 1560 1561 1562 1563 1563 1564 1564 1565 1564 1565 1564 1565 1564 1565 1566 1566 1566 1566
1537 1538 1539 1539 1540 1541 1542 1544 1545 1546 1547 1548 1549 1550 1551 1551 1552 1553 1554 1554 1555 1556 1556 1557 1557 1558 1558 1559 1560 1561 1561 1562 1562 1562 1562 1563 1563 1563 1563 1563 1564 1564 1563
1537 1537 1538 1539 1539 1541 1542 1543 1544 1545 1546 1547 1548 1548 1549 1550 1550 1551 1551 1552 1552 1553 1553 1554 1555 1555 1556 1557 1557 1558 1559 1559 1559 1560 1560 1560 1560 1560 1560 1560 1560 1560 1560